Location: Climax
(33.2048°N, 96.4497°W)
Time: 19:57:18
(UTC+00:00)

SL-4 R/B - Pass Details

Date: 09 July 2022
Orbit: 425 x 653 km, 51.6° (Epoch: 16 August)

Event Time Altitude Azimuth Distance (km) Brightness Sun altitude
Exits shadow 04:14:27 13° 30° (NNE) 1,373 4.3 -25.6°
Drops below altitude 10° 04:14:54 10° 32° (NNE) 1,547 4.6 -25.7°
Sets 04:17:09 0° 40° (NE) 2,444 5.5 -25.9°
